"startDT [UTC]","vpos","CH4 [ppm]","stdev(CH4) [ppm]","CO2 [ppm]","stdev(CO2) [ppm]","H2O_reported [%]","stdev(H2O_reported)","CavityPressure [torr]","CavityTemp [C]","OutletValve","CH4_dry [ppm]","CO2_dry [ppm]","DasTemp [C]","EtalonTemp [C]","WarmBoxTemp [C]","MPVPosition","T_ECpre [C]","T_EC1 [C]","T_EC2 [C]","p_inlet [hPa]","p_in [hPa]","p_out [hPa]","T_inlet [C]","RH_inlet [%]","dwpt_inlet [C]","T_vent [C]","RH_vent [%]","dwpt_vent [C]","flow_vent [l min-1]","flow_inlet [l min-1]","dwpt_sample [C]","T_room [C]"
2015-02-02 00:00:00,0.0,1.97327,0.00029,407.877,0.026,0.0244,0.0020,140.001,45.000,27726.63275,1.97372,407.996,25.300,45.070,45.000,0.00,0.09,-272.68,-272.73,-4,41,8,12.9,1.3,-39.7,13.1,3.0,-31.1,5.73,2.50,-29.6,19.4
2015-02-02 00:01:00,0.0,1.97338,0.00031,407.895,0.033,0.0247,0.0017,140.000,45.000,27725.63600,1.97387,408.016,25.312,45.070,45.000,0.00,0.09,-272.68,-272.72,-3,40,8,12.9,1.3,-39.7,13.2,3.0,-31.1,5.73,2.63,-29.6,19.4
2015-02-02 00:02:00,0.0,1.97314,0.00042,407.882,0.032,0.0246,0.0018,139.997,45.000,27725.65121,1.97363,408.004,25.316,45.070,45.000,0.00,0.09,-272.67,-272.73,-4,40,8,12.9,1.3,-39.7,13.2,3.0,-31.1,5.73,2.57,-29.6,19.4
2015-02-02 00:03:00,0.0,1.97359,0.00051,407.893,0.026,0.0255,0.0012,140.000,45.000,27723.63428,1.97400,408.017,25.356,45.070,45.000,0.00,0.09,-272.68,-272.74,-4,40,8,12.9,1.3,-39.8,13.2,3.0,-31.1,5.73,2.47,-29.6,19.4
2015-02-02 00:04:00,0.0,1.97373,0.00051,407.876,0.040,0.0242,0.0026,140.000,45.000,27723.90692,1.97425,407.995,25.362,45.070,45.000,0.00,0.09,-272.68,-272.73,-4,40,8,12.9,1.3,-39.9,13.2,3.0,-31.1,5.73,2.60,-29.6,19.4
2015-02-02 00:05:00,0.0,1.97349,0.00037,407.885,0.039,0.0245,0.0018,139.999,45.000,27723.76942,1.97398,408.007,25.373,45.070,45.000,0.00,0.09,-272.68,-272.74,-4,40,8,12.9,1.3,-39.9,13.2,3.0,-31.1,5.73,2.61,-29.6,19.4
2015-02-02 00:06:00,0.0,1.97351,0.00033,407.886,0.027,0.0249,0.0019,139.998,45.000,27723.33905,1.97400,408.006,25.372,45.070,45.000,0.00,0.09,-272.68,-272.74,-4,40,8,13.0,1.3,-39.9,13.2,3.0,-31.1,5.73,2.48,-29.5,19.4
2015-02-02 00:07:00,0.0,1.97339,0.00036,407.887,0.022,0.0250,0.0017,140.001,45.000,27726.09502,1.97387,408.010,25.377,45.070,45.000,0.00,0.09,-272.68,-272.73,-4,40,8,13.0,1.3,-39.9,13.2,3.0,-31.1,5.73,2.53,-29.6,19.4
2015-02-02 00:08:00,0.0,1.97336,0.00032,407.886,0.022,0.0250,0.0025,140.001,45.000,27725.97820,1.97384,408.009,25.382,45.070,45.000,0.00,0.09,-272.68,-272.73,-4,40,8,13.0,1.3,-39.9,13.3,3.0,-31.1,5.73,2.63,-29.5,19.4
2015-02-02 00:09:00,0.0,1.97347,0.00037,407.896,0.024,0.0241,0.0017,139.998,45.000,27724.02004,1.97393,408.013,25.393,45.070,45.000,0.00,0.09,-272.68,-272.74,-4,40,8,12.9,1.3,-39.9,13.2,3.0,-31.1,5.73,2.54,-29.5,19.4
2015-02-02 00:10:00,0.0,1.97361,0.00036,407.892,0.037,0.0243,0.0016,140.002,45.000,27724.97509,1.97411,408.011,25.392,45.070,45.000,0.00,0.09,-272.68,-272.73,-4,40,8,12.9,1.3,-39.9,13.2,3.0,-31.1,5.73,2.47,-29.5,19.4
2015-02-02 00:11:00,0.0,1.97358,0.00048,407.908,0.031,0.0251,0.0014,140.001,45.000,27724.06641,1.97407,408.030,25.403,45.070,45.000,0.00,0.09,-272.68,-272.72,-4,40,8,12.9,1.3,-39.9,13.2,3.0,-31.1,5.73,2.59,-29.5,19.4
2015-02-02 00:12:00,0.0,1.97342,0.00032,407.881,0.030,0.0251,0.0017,140.003,45.000,27722.98693,1.97390,408.006,25.408,45.070,45.000,0.00,0.09,-272.68,-272.74,-5,40,8,12.9,1.3,-39.7,13.2,3.0,-31.1,5.73,2.61,-29.5,19.4
2015-02-02 00:13:00,0.0,1.97338,0.00038,407.912,0.034,0.0253,0.0017,139.997,45.000,27721.17161,1.97386,408.034,25.420,45.070,45.000,0.00,0.09,-272.67,-272.74,-4,40,8,12.9,1.3,-39.7,13.2,3.0,-31.1,5.73,2.48,-29.5,19.4
2015-02-02 00:14:00,0.0,1.97372,0.00043,407.862,0.033,0.0264,0.0034,140.002,45.000,27723.43302,1.97422,407.992,25.428,45.070,45.000,0.00,0.09,-272.68,-272.73,-4,40,8,12.9,1.3,-39.7,13.2,3.0,-31.1,5.73,2.52,-29.5,19.4
2015-02-02 00:15:00,0.0,1.97350,0.00028,407.891,0.027,0.0250,0.0015,140.001,45.000,27723.29167,1.97399,408.014,25.410,45.070,45.000,0.00,0.09,-272.68,-272.73,-4,39,8,12.9,1.3,-39.7,13.2,3.0,-31.1,5.73,2.63,-29.5,19.4
2015-02-02 00:16:00,0.0,1.97332,0.00031,407.887,0.020,0.0242,0.0024,140.001,45.000,27723.73242,1.97379,408.005,25.426,45.070,45.000,0.00,0.09,-272.68,-272.74,-4,40,8,12.9,1.3,-39.7,13.2,3.0,-31.1,5.73,2.55,-29.5,19.4
2015-02-02 00:17:00,0.0,1.97311,0.00026,407.895,0.031,0.0249,0.0023,139.999,45.000,27723.85204,1.97362,408.017,25.433,45.070,45.000,0.00,0.09,-272.68,-272.74,-4,40,8,12.9,1.3,-39.7,13.2,3.0,-31.1,5.73,2.47,-29.5,19.4
2015-02-02 00:18:00,0.0,1.97337,0.00030,407.893,0.025,0.0257,0.0018,139.999,45.000,27722.38337,1.97386,408.019,25.441,45.070,45.000,0.00,0.09,-272.68,-272.73,-4,40,7,12.9,1.3,-39.7,13.2,3.0,-31.1,5.73,2.59,-29.5,19.4
2015-02-02 00:19:00,0.0,1.97332,0.00040,407.873,0.024,0.0252,0.0018,140.002,45.000,27721.74165,1.97380,407.997,25.453,45.070,45.000,0.00,0.09,-272.68,-272.74,-4,39,8,12.9,1.3,-39.7,13.2,3.0,-31.1,5.73,2.61,-29.5,19.4
2015-02-02 00:20:00,0.0,1.97326,0.00036,407.884,0.019,0.0257,0.0018,140.000,45.000,27720.91294,1.97376,408.010,25.474,45.070,45.000,0.00,0.09,-272.68,-272.74,-4,39,8,12.9,1.3,-39.5,13.2,3.0,-31.1,5.73,2.48,-29.5,19.5
2015-02-02 00:21:00,0.0,1.97322,0.00038,407.871,0.033,0.0250,0.0019,139.999,45.000,27718.89026,1.97372,407.993,25.500,45.070,45.000,0.00,0.09,-272.68,-272.73,-4,39,7,12.9,1.3,-39.5,13.3,3.0,-31.1,5.73,2.52,-29.4,19.5
2015-02-02 00:22:00,0.0,1.97310,0.00027,407.859,0.040,0.0270,0.0029,139.999,45.000,27719.79778,1.97362,407.992,25.500,45.070,45.000,0.00,0.09,-272.68,-272.73,-4,39,7,12.9,1.3,-39.4,13.2,3.0,-31.1,5.73,2.63,-29.5,19.5
2015-02-02 00:23:00,0.0,1.97301,0.00034,407.851,0.028,0.0253,0.0014,140.000,45.000,27720.10840,1.97349,407.976,25.500,45.070,45.000,0.00,0.09,-272.68,-272.74,-4,39,8,12.9,1.3,-39.3,13.2,3.0,-31.1,5.73,2.53,-29.4,19.5
2015-02-02 00:24:00,0.0,1.97303,0.00033,407.867,0.027,0.0259,0.0033,140.000,45.000,27719.64243,1.97354,407.995,25.464,45.070,45.000,0.00,0.09,-272.68,-272.73,-5,39,8,12.9,1.3,-39.4,13.2,3.0,-31.1,5.73,2.47,-29.4,19.5
2015-02-02 00:25:00,0.0,1.97321,0.00035,407.852,0.036,0.0262,0.0017,140.000,45.000,27719.93255,1.97369,407.980,25.465,45.070,45.000,0.00,0.09,-272.68,-272.72,-5,39,8,12.9,1.3,-39.5,13.3,3.0,-31.1,5.73,2.62,-29.4,19.5
2015-02-02 00:26:00,0.0,1.97309,0.00046,407.856,0.033,0.0253,0.0013,139.998,45.000,27720.14740,1.97362,407.979,25.457,45.071,45.000,0.00,0.09,-272.67,-272.74,-4,39,8,12.9,1.3,-39.6,13.3,3.0,-31.1,5.73,2.58,-29.4,19.5
2015-02-02 00:27:00,0.0,1.97263,0.00034,407.836,0.034,0.0263,0.0017,139.998,45.000,27719.58452,1.97314,407.965,25.488,45.071,45.000,0.00,0.09,-272.67,-272.74,-4,39,8,12.9,1.3,-39.3,13.2,3.0,-31.1,5.73,2.46,-29.4,19.5
2015-02-02 00:28:00,0.0,1.97295,0.00049,407.843,0.021,0.0247,0.0013,139.998,45.000,27719.27810,1.97340,407.964,25.476,45.071,45.000,0.00,0.09,-272.68,-272.72,-5,39,7,12.9,1.3,-39.4,13.2,3.0,-31.1,5.73,2.57,-29.4,19.4
2015-02-02 00:29:00,0.0,1.97281,0.00030,407.849,0.033,0.0254,0.0025,139.999,45.000,27719.38540,1.97332,407.973,25.452,45.071,45.000,0.00,0.09,-272.67,-272.73,-5,39,7,12.9,1.3,-39.4,13.2,3.0,-31.1,5.73,2.61,-29.4,19.5
2015-02-02 00:30:00,0.0,1.97262,0.00033,407.828,0.040,0.0269,0.0017,140.003,45.000,27720.30693,1.97313,407.961,25.459,45.071,45.000,0.00,0.09,-272.68,-272.75,-4,39,7,12.9,1.4,-39.1,13.2,3.0,-31.1,5.73,2.46,-29.4,19.5
2015-02-02 00:31:00,0.0,1.97281,0.00024,407.824,0.034,0.0274,0.0016,140.005,45.000,27719.60293,1.97335,407.957,25.465,45.071,45.000,0.00,0.09,-272.68,-272.73,-4,39,7,12.9,1.4,-38.8,13.2,3.0,-31.1,5.73,2.52,-29.4,19.5
2015-02-02 00:32:00,0.0,1.97285,0.00036,407.866,0.026,0.0269,0.0018,139.998,45.000,27715.77439,1.97334,407.997,25.449,45.070,45.000,0.00,0.09,-272.68,-272.73,-5,39,7,12.9,1.4,-38.9,13.2,3.0,-31.1,5.73,2.62,-29.4,19.5
2015-02-02 00:33:00,0.0,1.97258,0.00027,407.846,0.024,0.0281,0.0015,139.999,45.000,27714.29986,1.97320,407.984,25.446,45.070,45.000,0.00,0.09,-272.67,-272.74,-5,39,7,12.9,1.4,-38.7,13.2,3.0,-31.1,5.73,2.50,-29.4,19.5
2015-02-02 00:34:00,0.0,1.97295,0.00032,407.828,0.024,0.0270,0.0013,139.999,45.000,27711.61661,1.97345,407.961,25.453,45.070,45.000,0.00,0.09,-272.68,-272.73,-4,39,7,12.9,1.4,-38.9,13.2,3.0,-31.1,5.73,2.48,-29.4,19.5
2015-02-02 00:35:00,0.0,1.97278,0.00032,407.847,0.042,0.0268,0.0035,139.999,45.000,27709.48697,1.97329,407.977,25.440,45.070,45.000,0.00,0.09,-272.68,-272.72,-4,39,7,12.9,1.4,-38.9,13.2,3.0,-31.1,5.73,2.62,-29.4,19.5
2015-02-02 00:36:00,0.0,1.97243,0.00030,407.820,0.027,0.0291,0.0023,139.998,45.000,27706.67567,1.97302,407.962,25.455,45.070,45.000,0.00,0.09,-272.68,-272.74,-5,38,7,12.9,1.5,-38.4,13.2,3.0,-31.1,5.73,2.53,-29.4,19.5
2015-02-02 00:37:00,0.0,1.97238,0.00038,407.796,0.021,0.0285,0.0018,140.001,45.000,27706.75558,1.97293,407.937,25.448,45.070,45.000,0.00,0.09,-272.68,-272.73,-5,39,7,12.9,1.5,-38.2,13.2,3.0,-31.1,5.73,2.45,-29.4,19.5
2015-02-02 00:38:00,0.0,1.97237,0.00044,407.819,0.024,0.0280,0.0016,139.998,45.000,27706.74043,1.97292,407.956,25.438,45.070,45.000,0.00,0.09,-272.68,-272.73,-5,39,7,12.8,1.5,-38.4,13.2,3.0,-31.1,5.73,2.60,-29.4,19.5
2015-02-02 00:39:00,0.0,1.97237,0.00039,407.812,0.030,0.0277,0.0017,139.999,45.000,27705.48231,1.97287,407.948,25.422,45.070,45.000,0.00,0.09,-272.68,-272.74,-5,38,7,12.8,1.5,-38.4,13.2,3.0,-31.1,5.73,2.57,-29.4,19.5
2015-02-02 00:40:00,0.0,1.97230,0.00021,407.788,0.024,0.0328,0.0024,140.002,45.000,27705.25425,1.97294,407.947,25.400,45.070,45.000,0.00,0.09,-272.67,-272.74,-5,38,7,12.8,1.7,-37.1,13.2,3.0,-31.1,5.73,2.45,-29.4,19.6
2015-02-02 00:41:00,0.0,1.97229,0.00046,407.808,0.047,0.0330,0.0028,140.001,44.999,27704.77170,1.97293,407.970,25.384,45.070,45.000,0.00,0.09,-272.68,-272.73,-5,38,7,12.8,1.8,-36.6,13.2,3.0,-31.1,5.73,2.57,-29.4,19.6
2015-02-02 00:42:00,0.0,1.97245,0.00051,407.822,0.034,0.0285,0.0017,139.997,45.000,27704.33367,1.97302,407.962,25.375,45.070,45.000,0.00,0.09,-272.67,-272.73,-5,38,7,12.8,1.6,-37.7,13.2,3.0,-31.1,5.73,2.60,-29.4,19.5
2015-02-02 00:43:00,0.0,1.97216,0.00028,407.821,0.032,0.0278,0.0021,140.000,45.000,27704.43120,1.97271,407.957,25.372,45.070,45.000,0.00,0.09,-272.67,-272.74,-4,38,7,12.8,1.5,-38.2,13.1,3.0,-31.1,5.73,2.45,-29.4,19.5
2015-02-02 00:44:00,0.0,1.97258,0.00044,407.827,0.029,0.0278,0.0022,140.000,45.000,27701.99519,1.97309,407.962,25.364,45.070,45.000,0.00,0.09,-272.68,-272.73,-5,38,7,12.8,1.5,-38.5,13.1,3.0,-31.1,5.73,2.53,-29.4,19.5
2015-02-02 00:45:00,0.0,1.97278,0.00036,407.822,0.029,0.0310,0.0029,140.002,45.000,27702.15576,1.97338,407.973,25.360,45.070,45.000,0.00,0.09,-272.68,-272.73,-5,39,7,12.8,1.6,-37.7,13.1,3.0,-31.1,5.73,2.62,-29.4,19.5
2015-02-02 00:46:00,0.0,1.97259,0.00050,407.800,0.040,0.0361,0.0030,140.001,45.000,27702.36320,1.97335,407.978,25.331,45.070,45.000,0.00,0.09,-272.67,-272.74,-4,39,7,12.8,1.9,-36.2,13.1,3.0,-31.1,5.73,2.48,-29.4,19.5
2015-02-02 00:47:00,0.0,1.97250,0.00039,407.786,0.033,0.0298,0.0025,139.998,45.000,27701.46510,1.97303,407.933,25.315,45.070,45.000,0.00,0.09,-272.69,-272.74,-4,38,7,12.8,1.7,-37.0,13.1,3.0,-31.1,5.73,2.49,-29.4,19.5
2015-02-02 00:48:00,0.0,1.97208,0.00045,407.774,0.042,0.0325,0.0033,139.998,45.000,27699.69846,1.97274,407.934,25.313,45.070,45.000,0.00,0.09,-272.68,-272.73,-5,38,7,12.8,1.7,-37.1,13.1,3.0,-31.0,5.73,2.63,-29.4,19.5
2015-02-02 00:49:00,0.0,1.97207,0.00026,407.770,0.023,0.0318,0.0022,140.001,45.000,27700.86480,1.97267,407.927,25.311,45.070,45.000,0.00,0.09,-272.67,-272.73,-5,39,7,12.8,1.7,-37.4,13.1,3.0,-31.1,5.73,2.51,-29.4,19.5
2015-02-02 00:50:00,0.0,1.97181,0.00036,407.775,0.029,0.0292,0.0023,139.998,45.000,27699.70514,1.97240,407.918,25.302,45.070,45.000,0.00,0.09,-272.68,-272.74,-4,39,7,12.7,1.6,-37.8,13.1,3.0,-31.1,5.73,2.47,-29.4,19.5
2015-02-02 00:51:00,0.0,1.97209,0.00033,407.764,0.028,0.0304,0.0029,140.001,45.000,27700.56186,1.97267,407.911,25.273,45.070,45.000,0.00,0.09,-272.69,-272.73,-4,38,7,12.7,1.6,-37.9,13.1,3.0,-31.1,5.73,2.62,-29.4,19.5
2015-02-02 00:52:00,0.0,1.97180,0.00038,407.767,0.028,0.0318,0.0019,139.999,45.000,27698.58393,1.97240,407.923,25.253,45.070,45.000,0.00,0.09,-272.67,-272.73,-5,39,7,12.7,1.7,-37.3,13.1,3.0,-31.1,5.73,2.55,-29.4,19.5
2015-02-02 00:53:00,0.0,1.97231,0.00039,407.766,0.039,0.0349,0.0061,140.001,45.000,27695.87626,1.97298,407.937,25.250,45.070,45.000,0.00,0.09,-272.68,-272.74,-5,39,7,12.7,1.9,-36.3,13.1,3.0,-31.1,5.73,2.45,-29.4,19.5
2015-02-02 00:54:00,0.0,1.97246,0.00050,407.803,0.039,0.0305,0.0026,140.000,45.000,27694.41177,1.97304,407.954,25.233,45.070,45.000,0.00,0.09,-272.69,-272.73,-4,39,7,12.7,1.7,-37.2,13.1,3.0,-31.1,5.73,2.59,-29.4,19.5
2015-02-02 00:55:00,0.0,1.97256,0.00024,407.804,0.028,0.0291,0.0014,139.999,45.000,27693.70575,1.97314,407.946,25.213,45.070,45.000,0.00,0.09,-272.67,-272.74,-4,39,7,12.7,1.6,-37.9,13.1,3.0,-31.1,5.73,2.59,-29.4,19.5
2015-02-02 00:56:00,0.0,1.97255,0.00037,407.830,0.045,0.0259,0.0019,140.000,45.000,27694.93616,1.97303,407.957,25.187,45.070,45.000,0.00,0.09,-272.67,-272.73,-5,39,7,12.7,1.4,-38.8,13.1,3.0,-31.1,5.73,2.45,-29.4,19.4
2015-02-02 00:57:00,0.0,1.97266,0.00042,407.813,0.039,0.0253,0.0015,139.999,45.000,27694.54589,1.97317,407.938,25.167,45.070,45.000,0.00,0.09,-272.69,-272.74,-5,39,7,12.6,1.4,-39.1,13.0,3.0,-31.1,5.73,2.55,-29.4,19.4
2015-02-02 00:58:00,0.0,1.97271,0.00040,407.833,0.028,0.0292,0.0032,139.994,45.000,27691.34291,1.97328,407.973,25.126,45.070,45.000,0.00,0.09,-272.68,-272.73,-4,39,7,12.6,1.5,-38.7,13.0,3.1,-31.0,5.73,2.61,-29.4,19.4
2015-02-02 00:59:00,0.0,1.97255,0.00039,407.804,0.042,0.0311,0.0035,139.998,44.999,27692.57147,1.97318,407.957,25.098,45.071,45.000,0.00,0.09,-272.67,-272.74,-4,39,7,12.6,1.6,-37.6,13.0,3.0,-31.1,5.73,2.47,-29.4,19.4
2015-02-02 01:00:00,0.0,1.97284,0.00046,407.831,0.029,0.0288,0.0018,139.999,45.000,27691.79587,1.97335,407.974,25.044,45.071,45.000,0.00,0.09,-272.69,-272.73,-5,39,7,12.6,1.6,-37.7,13.0,3.0,-31.1,5.73,2.51,-29.4,19.4
2015-02-02 01:01:00,0.0,1.97288,0.00033,407.812,0.033,0.0301,0.0024,140.000,45.000,27690.67139,1.97348,407.959,25.012,45.071,45.000,0.00,0.09,-272.69,-272.74,-5,39,7,12.5,1.6,-37.8,13.0,3.0,-31.2,5.73,2.63,-29.4,19.4
2015-02-02 01:02:00,0.0,1.97259,0.00038,407.795,0.035,0.0281,0.0013,140.001,45.000,27689.01456,1.97315,407.932,25.000,45.071,45.000,0.00,0.09,-272.67,-272.74,-4,39,7,12.5,1.5,-38.2,12.9,3.0,-31.2,5.73,2.51,-29.4,19.4
2015-02-02 01:03:00,0.0,1.97221,0.00036,407.798,0.038,0.0291,0.0022,139.996,45.000,27688.58508,1.97280,407.941,24.985,45.071,45.000,0.00,0.09,-272.68,-272.73,-4,39,7,12.5,1.5,-38.3,12.9,3.0,-31.2,5.73,2.48,-29.4,19.4
2015-02-02 01:04:00,0.0,1.97207,0.00038,407.756,0.031,0.0322,0.0032,139.998,45.000,27687.82459,1.97269,407.913,24.949,45.071,45.000,0.00,0.09,-272.68,-272.74,-5,39,7,12.5,1.7,-37.1,12.9,3.0,-31.2,5.73,2.62,-29.4,19.4
2015-02-02 01:05:00,0.0,1.97221,0.00031,407.757,0.032,0.0335,0.0029,139.999,45.000,27686.80994,1.97283,407.919,24.924,45.071,45.000,0.00,0.09,-272.68,-272.74,-5,39,7,12.5,1.8,-36.8,12.9,3.0,-31.2,5.73,2.55,-29.4,19.4
2015-02-02 01:06:00,0.0,1.97204,0.00040,407.735,0.033,0.0316,0.0021,139.999,45.000,27689.04519,1.97269,407.891,24.875,45.071,45.000,0.00,0.09,-272.68,-272.74,-4,39,8,12.4,1.7,-37.1,12.9,3.0,-31.2,5.73,2.46,-29.4,19.3
2015-02-02 01:07:00,0.0,1.97217,0.00030,407.770,0.021,0.0305,0.0024,140.000,44.999,27686.77250,1.97274,407.920,24.869,45.071,45.000,0.00,0.09,-272.68,-272.73,-4,39,8,12.4,1.7,-37.5,12.9,3.0,-31.2,5.73,2.60,-29.4,19.3
2015-02-02 01:08:00,0.0,1.97220,0.00037,407.761,0.023,0.0330,0.0031,139.998,45.000,27684.20253,1.97287,407.922,24.831,45.071,45.000,0.00,0.09,-272.67,-272.74,-5,39,8,12.4,1.8,-36.8,12.8,3.0,-31.2,5.73,2.59,-29.4,19.3
2015-02-02 01:09:00,0.0,1.97213,0.00050,407.736,0.047,0.0409,0.0061,140.003,44.999,27685.38287,1.97285,407.938,24.809,45.071,45.000,0.00,0.09,-272.67,-272.73,-5,39,8,12.3,2.1,-35.1,12.8,3.0,-31.3,5.73,2.45,-29.4,19.3
2015-02-02 01:10:00,0.0,1.97232,0.00042,407.750,0.047,0.0379,0.0031,140.000,45.000,27684.07566,1.97309,407.934,24.764,45.071,45.000,0.00,0.09,-272.69,-272.73,-4,39,8,12.3,2.1,-35.3,12.8,3.0,-31.3,5.73,2.57,-29.5,19.3
2015-02-02 01:11:00,0.0,1.97190,0.00040,407.736,0.063,0.0444,0.0089,139.998,44.999,27683.69718,1.97276,407.953,24.745,45.071,45.000,0.00,0.09,-272.68,-272.73,-4,39,8,12.3,2.3,-34.3,12.8,3.0,-31.2,5.73,2.61,-29.4,19.3
2015-02-02 01:12:00,0.0,1.97227,0.00043,407.781,0.031,0.0368,0.0042,140.003,45.000,27682.93717,1.97298,407.960,24.709,45.071,45.000,0.00,0.09,-272.67,-272.74,-5,39,8,12.3,2.2,-34.9,12.8,3.0,-31.2,5.73,2.46,-29.4,19.2
2015-02-02 01:13:00,0.0,1.97159,0.00038,407.711,0.036,0.0483,0.0066,140.000,45.000,27683.08136,1.97255,407.949,24.683,45.071,45.000,0.00,0.09,-272.69,-272.73,-5,39,8,12.3,2.6,-33.4,12.7,3.1,-31.2,5.73,2.54,-29.4,19.2
2015-02-02 01:14:00,0.0,1.97144,0.00040,407.620,0.049,0.0609,0.0077,139.999,44.999,27681.48432,1.97266,407.918,24.643,45.071,45.000,0.00,0.09,-272.68,-272.74,-4,39,8,12.3,3.2,-31.0,12.7,3.0,-31.2,5.73,2.62,-29.4,19.2
2015-02-02 01:15:00,0.0,1.97118,0.00041,407.618,0.052,0.0575,0.0106,139.998,44.999,27680.87291,1.97227,407.901,24.625,45.071,45.000,0.00,0.09,-272.67,-272.74,-5,39,8,12.2,3.3,-30.9,12.7,3.0,-31.3,5.73,2.47,-29.4,19.2
2015-02-02 01:16:00,0.0,1.97110,0.00041,407.656,0.041,0.0486,0.0066,139.997,44.999,27681.35559,1.97204,407.894,24.586,45.071,45.000,0.00,0.09,-272.68,-272.72,-5,39,8,12.2,2.8,-32.4,12.7,3.0,-31.3,5.73,2.51,-29.4,19.2
2015-02-02 01:17:00,0.0,1.97097,0.00033,407.578,0.042,0.0683,0.0053,140.002,45.000,27679.68946,1.97227,407.912,24.562,45.071,45.000,0.00,0.09,-272.68,-272.73,-4,40,8,12.2,3.5,-30.1,12.7,3.1,-31.3,5.73,2.65,-29.5,19.2
2015-02-02 01:18:00,0.0,1.97113,0.00049,407.615,0.078,0.0676,0.0173,139.998,45.000,27675.37213,1.97243,407.942,24.547,45.071,45.000,0.00,0.09,-272.67,-272.73,-4,40,8,12.1,3.7,-29.8,12.7,3.1,-31.3,5.73,2.51,-29.5,19.2
2015-02-02 01:19:00,0.0,1.97093,0.00030,407.527,0.044,0.0812,0.0093,140.002,44.999,27676.11962,1.97255,407.929,24.507,45.070,45.000,0.00,0.09,-272.68,-272.73,-4,39,8,12.1,4.4,-27.9,12.6,3.0,-31.3,5.73,2.52,-29.5,19.2
2015-02-02 01:20:00,0.0,1.97116,0.00034,407.602,0.036,0.0656,0.0034,139.999,44.999,27675.16222,1.97241,407.925,24.500,45.071,45.000,0.00,0.09,-272.69,-272.74,-5,40,8,12.1,3.8,-29.2,12.6,3.1,-31.3,5.73,2.66,-29.5,19.1
2015-02-02 01:21:00,0.0,1.97105,0.00033,407.589,0.029,0.0631,0.0050,139.998,44.999,27673.07975,1.97228,407.898,24.455,45.070,45.000,0.00,0.09,-272.67,-272.74,-4,40,8,12.1,3.6,-29.9,12.6,3.0,-31.3,5.73,2.52,-29.5,19.1
2015-02-02 01:22:00,0.0,1.97044,0.00040,407.457,0.052,0.0925,0.0086,139.999,44.999,27674.54858,1.97226,407.910,24.428,45.070,45.000,0.00,0.09,-272.67,-272.72,-4,40,8,12.1,4.7,-27.2,12.6,3.0,-31.3,5.73,2.50,-29.5,19.1
2015-02-02 01:23:00,0.0,1.97069,0.00038,407.487,0.019,0.0864,0.0041,139.999,45.000,27672.91772,1.97237,407.911,24.378,45.071,45.000,0.00,0.09,-272.68,-272.73,-5,40,8,12.1,4.8,-27.0,12.5,3.0,-31.4,5.73,2.64,-29.5,19.0
2015-02-02 01:24:00,0.0,1.97104,0.00040,407.584,0.032,0.0725,0.0055,139.999,44.999,27672.03253,1.97239,407.940,24.362,45.071,45.000,0.00,0.09,-272.67,-272.74,-5,40,8,12.1,4.2,-28.3,12.5,3.0,-31.4,5.73,2.51,-29.5,19.0
2015-02-02 01:25:00,0.0,1.97155,0.00060,407.621,0.018,0.0558,0.0040,140.000,45.000,27673.34525,1.97268,407.895,24.333,45.071,45.000,0.00,0.09,-272.68,-272.73,-4,40,8,12.0,3.4,-30.7,12.5,3.1,-31.4,5.73,2.49,-29.5,19.0
2015-02-02 01:26:00,0.0,1.97146,0.00041,407.645,0.035,0.0513,0.0029,140.000,45.000,27672.09564,1.97244,407.898,24.306,45.071,45.000,0.00,0.09,-272.68,-272.72,-4,40,8,12.0,2.9,-32.1,12.5,3.0,-31.4,5.73,2.65,-29.5,19.0
2015-02-02 01:27:00,0.0,1.97102,0.00037,407.586,0.078,0.0653,0.0124,140.000,44.999,27671.70495,1.97228,407.905,24.258,45.071,45.000,0.00,0.09,-272.68,-272.75,-5,40,8,11.9,3.4,-30.8,12.5,3.1,-31.4,5.73,2.52,-29.5,19.0
2015-02-02 01:28:00,0.0,1.97084,0.00054,407.542,0.066,0.0725,0.0124,140.001,44.999,27671.54685,1.97223,407.897,24.240,45.071,45.000,0.00,0.09,-272.68,-272.73,-4,40,8,11.9,4.0,-29.0,12.5,3.1,-31.4,5.73,2.51,-29.5,19.0
2015-02-02 01:29:00,0.0,1.97092,0.00036,407.621,0.041,0.0627,0.0078,140.001,44.999,27672.34499,1.97215,407.929,24.200,45.071,45.000,0.00,0.09,-272.67,-272.73,-4,40,8,11.9,3.5,-30.2,12.4,3.1,-31.5,5.73,2.66,-29.5,18.9
2015-02-02 01:30:00,0.0,1.97136,0.00050,407.639,0.039,0.0530,0.0069,140.000,45.000,27668.25304,1.97238,407.900,24.182,45.071,45.000,0.00,0.09,-272.67,-272.74,-4,40,8,11.9,3.2,-31.3,12.4,3.1,-31.5,5.73,2.51,-29.5,18.9
2015-02-02 01:31:00,0.0,1.97086,0.00040,407.513,0.056,0.0810,0.0101,139.998,45.000,27667.59135,1.97244,407.909,24.134,45.071,45.000,0.00,0.09,-272.68,-272.73,-5,41,8,11.9,4.1,-28.8,12.4,3.0,-31.5,5.73,2.51,-29.5,18.9
2015-02-02 01:32:00,0.0,1.97113,0.00033,407.565,0.070,0.0670,0.0086,140.002,45.000,27670.83199,1.97242,407.894,24.115,45.071,45.000,0.00,0.09,-272.67,-272.73,-4,41,8,11.9,3.9,-29.3,12.4,3.0,-31.5,5.73,2.65,-29.5,18.9
2015-02-02 01:33:00,0.0,1.97120,0.00038,407.630,0.035,0.0563,0.0016,139.999,45.000,27671.63821,1.97229,407.906,24.074,45.071,45.000,0.00,0.09,-272.67,-272.74,-4,41,8,11.8,3.3,-30.9,12.3,3.1,-31.5,5.73,2.50,-29.5,18.9
2015-02-02 01:34:00,0.0,1.97119,0.00046,407.649,0.036,0.0530,0.0062,140.000,45.000,27669.75352,1.97223,407.908,24.049,45.071,45.000,0.00,0.09,-272.69,-272.73,-4,41,8,11.8,3.1,-31.8,12.3,3.1,-31.5,5.73,2.53,-29.5,18.8
2015-02-02 01:35:00,0.0,1.97074,0.00041,407.539,0.037,0.0705,0.0048,140.000,45.000,27668.93761,1.97215,407.885,24.022,45.071,45.000,0.00,0.09,-272.67,-272.73,-4,41,8,11.7,3.8,-29.8,12.3,3.1,-31.5,5.73,2.67,-29.5,18.8
2015-02-02 01:36:00,0.0,1.97084,0.00043,407.602,0.046,0.0576,0.0081,140.001,45.000,27670.73079,1.97194,407.886,23.998,45.071,45.000,0.00,0.09,-272.67,-272.73,-4,41,8,11.7,3.4,-30.7,12.3,3.0,-31.6,5.73,2.50,-29.5,18.8
2015-02-02 01:37:00,0.0,1.97114,0.00034,407.609,0.033,0.0556,0.0039,140.000,44.999,27668.53334,1.97221,407.878,23.958,45.071,45.000,0.00,0.09,-272.68,-272.73,-4,41,8,11.7,3.2,-31.6,12.2,3.1,-31.6,5.73,2.55,-29.5,18.7
2015-02-02 01:38:00,0.0,1.97069,0.00034,407.566,0.049,0.0640,0.0071,140.001,44.999,27669.68283,1.97191,407.881,23.934,45.071,45.000,0.00,0.09,-272.67,-272.74,-4,41,8,11.7,3.5,-30.6,12.2,3.1,-31.6,5.73,2.63,-29.5,18.7
2015-02-02 01:39:00,0.0,1.97087,0.00032,407.551,0.034,0.0685,0.0070,140.000,44.999,27669.43552,1.97220,407.887,23.890,45.071,45.000,0.00,0.09,-272.67,-272.74,-4,41,8,11.7,3.7,-29.9,12.2,3.0,-31.6,5.73,2.45,-29.5,18.7
2015-02-02 01:40:00,0.0,1.97136,0.00046,407.654,0.043,0.0499,0.0064,139.999,45.000,27670.04250,1.97236,407.900,23.875,45.071,45.000,0.00,0.09,-272.68,-272.73,-3,41,8,11.6,3.1,-31.8,12.1,3.1,-31.6,5.73,2.59,-29.5,18.7
2015-02-02 01:41:00,0.0,1.97137,0.00035,407.674,0.029,0.0415,0.0025,140.000,45.000,27669.90559,1.97217,407.879,23.854,45.071,45.000,0.00,0.09,-272.67,-272.74,-4,42,8,11.6,2.5,-34.0,12.1,3.1,-31.6,5.73,2.64,-29.5,18.7
2015-02-02 01:42:00,0.0,1.97119,0.00030,407.667,0.043,0.0459,0.0037,139.998,45.000,27665.10012,1.97207,407.891,23.821,45.071,45.000,0.00,0.09,-272.66,-272.73,-4,42,8,11.5,2.6,-33.9,12.1,3.1,-31.6,5.73,2.47,-29.6,18.7
2015-02-02 01:43:00,0.0,1.97132,0.00025,407.677,0.031,0.0513,0.0068,140.001,45.000,27665.62967,1.97230,407.927,23.812,45.071,45.000,0.00,0.09,-272.68,-272.72,-4,41,8,11.5,2.9,-32.7,12.1,3.1,-31.7,5.73,2.61,-29.6,18.6
2015-02-02 01:44:00,0.0,1.97150,0.00040,407.622,0.038,0.0605,0.0037,140.003,44.999,27666.87519,1.97266,407.919,23.785,45.071,45.000,0.00,0.09,-272.68,-272.73,-4,41,8,11.5,3.3,-31.4,12.1,3.1,-31.7,5.73,2.62,-29.6,18.6
2015-02-02 01:45:00,0.0,1.97154,0.00029,407.700,0.045,0.0458,0.0082,140.000,45.000,27668.90457,1.97244,407.924,23.750,45.071,45.000,0.00,0.09,-272.69,-272.73,-4,42,8,11.5,2.8,-32.9,12.1,3.0,-31.7,5.73,2.44,-29.6,18.6
2015-02-02 01:46:00,0.0,1.97166,0.00033,407.724,0.040,0.0355,0.0022,140.000,44.999,27668.45430,1.97236,407.899,23.742,45.071,45.000,0.00,0.09,-272.69,-272.72,-3,42,8,11.5,2.2,-35.3,12.1,3.1,-31.7,5.73,2.64,-29.6,18.6
2015-02-02 01:47:00,0.0,1.97123,0.00038,407.739,0.035,0.0374,0.0032,139.999,44.999,27665.95848,1.97195,407.921,23.721,45.071,45.000,0.00,0.09,-272.68,-272.74,-3,41,8,11.5,2.1,-35.8,12.0,3.1,-31.7,5.73,2.56,-29.6,18.6